EW3017 Weather Reports


time (UTC)temp
C
wind
direction
speed
KPH
gust
KPH
rain 1hr
cm
rain 24hr
cm
rain mn
cm
humidity
%
barometer
mb
20260505214537 26 0 4.8 22.5 0.00 0.00 0.00 40 1006.8
20260505214014 26 0 3.2 22.5 0.00 0.00 0.00 40 1006.8
20260505213515 26 0 4.8 22.5 0.00 0.00 0.00 40 1006.8
20260505213031 26 0 3.2 12.9 0.00 0.00 0.00 40 1006.8
20260505212517 26 0 0.0 12.9 0.00 0.00 0.00 40 1006.7
20260505212018 26 0 0.0 12.9 0.00 0.00 0.00 40 1006.6
20260505211530 27 0 1.6 19.3 0.00 0.00 0.00 40 1006.6
20260505211013 27 0 1.6 29.0 0.00 0.00 0.00 38 1006.6
20260505210513 27 222 4.8 29.0 0.00 0.00 0.00 38 1006.5
20260505210030 27 0 4.8 22.5 0.00 0.00 0.00 39 1006.5
20260505205513 27 254 3.2 16.1 0.00 0.00 0.00 39 1006.5
20260505205013 27 0 3.2 19.3 0.00 0.00 0.00 38 1006.6
20260505204530 28 0 1.6 19.3 0.00 0.00 0.00 36 1006.6
20260505204013 28 186 1.6 29.0 0.00 0.00 0.00 36 1006.6
20260505203511 27 0 3.2 29.0 0.00 0.00 0.00 35 1006.6
20260505203030 27 207 1.6 19.3 0.00 0.00 0.00 36 1006.6
20260505202513 27 0 3.2 19.3 0.00 0.00 0.00 35 1006.7
20260505202013 27 0 1.6 22.5 0.00 0.00 0.00 35 1006.7
20260505201531 27 0 4.8 22.5 0.00 0.00 0.00 36 1006.7
20260505201011 27 215 3.2 30.6 0.00 0.00 0.00 37 1006.8
20260505200514 27 253 3.2 30.6 0.00 0.00 0.00 36 1006.9
20260505200030 27 0 4.8 25.7 0.00 0.00 0.00 36 1006.9
20260505195513 27 250 3.2 20.9 0.00 0.00 0.00 39 1007.1
20260505195017 27 0 1.6 25.7 0.00 0.00 0.00 40 1007.1
20260505194537 27 0 4.8 25.7 0.00 0.00 0.00 39 1007.1
20260505194014 27 0 3.2 20.9 0.00 0.00 0.00 39 1007.2
20260505193513 27 182 6.4 20.9 0.00 0.00 0.00 39 1007.2
20260505193038 27 0 3.2 22.5 0.00 0.00 0.00 39 1007.3
20260505192514 27 279 1.6 22.5 0.00 0.00 0.00 40 1007.3
20260505192014 27 302 3.2 20.9 0.00 0.00 0.00 39 1007.0
20260505191547 27 0 4.8 22.5 0.00 0.00 0.00 36 1007.0
20260505191018 27 275 1.6 22.5 0.00 0.00 0.00 39 1007.1
20260505190513 27 0 4.8 29.0 0.00 0.00 0.00 35 1007.1
20260505190031 27 0 6.4 29.0 0.00 0.00 0.00 39 1007.4
20260505185511 27 0 3.2 32.2 0.00 0.00 0.00 38 1007.4
20260505185014 27 0 3.2 32.2 0.00 0.00 0.00 37 1007.5
20260505184533 27 302 4.8 37.0 0.00 0.00 0.00 38 1007.6
20260505184015 27 258 3.2 37.0 0.00 0.00 0.00 38 1007.7
20260505183513 27 294 9.7 37.0 0.00 0.00 0.00 38 1007.9
20260505183030 27 0 4.8 29.0 0.00 0.00 0.00 38 1007.8
20260505182513 27 238 6.4 29.0 0.00 0.00 0.00 39 1007.8
20260505182013 27 0 1.6 12.9 0.00 0.00 0.00 40 1007.9
20260505181531 27 0 1.6 24.1 0.00 0.00 0.00 40 1008.0
20260505181014 27 227 3.2 24.1 0.00 0.00 0.00 41 1008.1
20260505180512 27 254 1.6 24.1 0.00 0.00 0.00 40 1008.1
20260505180042 27 0 0.0 25.7 0.00 0.00 0.00 42 1008.1
20260505175512 27 0 1.6 25.7 0.00 0.00 0.00 41 1008.1
20260505175013 26 223 4.8 40.2 0.00 0.00 0.00 39 1008.2
20260505174539 26 306 3.2 40.2 0.00 0.00 0.00 41 1008.3
20260505174013 26 0 0.0 30.6 0.00 0.00 0.00 44 1008.2
20260505173514 26 0 4.8 33.8 0.00 0.00 0.00 42 1008.2
20260505173031 26 240 6.4 35.4 0.00 0.00 0.00 42 1008.4
20260505172512 26 230 6.4 35.4 0.00 0.00 0.00 41 1008.3
20260505172014 27 227 1.6 12.9 0.00 0.00 0.00 45 1008.3
20260505171534 26 0 0.0 24.1 0.00 0.00 0.00 45 1008.5
20260505171016 26 0 1.6 24.1 0.00 0.00 0.00 45 1008.6
20260505170513 26 0 3.2 24.1 0.00 0.00 0.00 46 1008.7
20260505170032 26 0 3.2 27.4 0.00 0.00 0.00 46 1008.6
20260505165514 25 225 3.2 27.4 0.00 0.00 0.00 49 1008.8
20260505165013 25 0 0.0 33.8 0.00 0.00 0.00 48 1008.9
20260505164530 25 0 8.0 33.8 0.00 0.00 0.00 48 1009.2
20260505164013 25 0 0.0 27.4 0.00 0.00 0.00 47 1009.2
20260505163514 25 252 1.6 29.0 0.00 0.00 0.00 47 1009.4
20260505163038 25 207 6.4 29.0 0.00 0.00 0.00 47 1009.3
20260505162513 25 222 0.0 29.0 0.00 0.00 0.00 49 1009.6
20260505162015 24 0 4.8 29.0 0.00 0.00 0.00 47 1009.6
20260505161530 25 304 12.9 27.4 0.00 0.00 0.00 47 1009.6
20260505161014 25 337 9.7 27.4 0.00 0.00 0.00 51 1009.7
20260505160513 25 0 3.2 29.0 0.00 0.00 0.00 48 1009.7
20260505153042 23 298 4.8 27.4 0.00 0.00 0.00 51 1009.6
20260505152516 23 0 3.2 29.0 0.00 0.00 0.00 52 1009.7
20260505152013 23 300 6.4 29.0 0.00 0.00 0.00 51 1009.8
20260505151537 23 335 11.3 27.4 0.00 0.00 0.00 50 1009.8
20260505151012 23 0 4.8 20.9 0.00 0.00 0.00 50 1009.8
20260505150515 23 192 1.6 19.3 0.00 0.00 0.00 53 1009.8
20260505140511 21 0 0.0 16.1 0.00 0.00 0.00 59 1010.2
20260505125014 18 0 0.0 0.0 0.00 0.00 0.00 68 1010.4
20260505124536 18 0 0.0 0.0 0.00 0.00 0.00 68 1010.4
20260505124014 17 0 0.0 1.6 0.00 0.00 0.00 68 1010.4
20260505123517 17 0 0.0 6.4 0.00 0.00 0.00 69 1010.4
20260505123052 17 0 1.6 6.4 0.00 0.00 0.00 70 1010.4
20260505122515 17 0 0.0 0.0 0.00 0.00 0.00 72 1010.4
20260505122011 16 0 0.0 0.0 0.00 0.00 0.00 73 1010.5
20260505121534 16 0 0.0 0.0 0.00 0.00 0.00 75 1010.5
20260505121013 16 0 0.0 0.0 0.00 0.00 0.00 75 1010.5
20260505120513 15 0 0.0 0.0 0.00 0.00 0.00 78 1010.4
20260505120032 15 0 0.0 0.0 0.00 0.00 0.00 77 1010.3
20260505115513 15 0 0.0 0.0 0.00 0.00 0.00 77 1010.2
20260505115037 15 0 0.0 0.0 0.00 0.00 0.00 76 1010.2
20260505114545 15 0 0.0 0.0 0.00 0.00 0.00 77 1010.3
20260505114015 15 0 0.0 0.0 0.00 0.00 0.00 78 1010.3
20260505113513 15 0 0.0 0.0 0.00 0.00 0.00 78 1010.4
20260505113037 15 0 0.0 0.0 0.00 0.00 0.00 80 1010.2
20260505112516 14 0 0.0 0.0 0.00 0.00 0.00 81 1010.2
20260505112020 13 0 0.0 0.0 0.00 0.00 0.00 81 1009.7
20260505111550 13 0 0.0 0.0 0.00 0.00 0.00 81 1009.6
20260505111017 13 0 0.0 0.0 0.00 0.00 0.00 81 1009.7
20260505110513 13 0 0.0 0.0 0.00 0.00 0.00 81 1009.8
20260505102018 12 0 0.0 0.0 0.00 0.00 0.00 80 1009.8
20260505101535 12 0 0.0 0.0 0.00 0.00 0.00 80 1009.8
20260505101019 13 0 0.0 0.0 0.00 0.00 0.00 79 1009.8
20260505100514 13 0 0.0 0.0 0.00 0.00 0.00 79 1009.5
20260505100034 13 0 0.0 0.0 0.00 0.00 0.00 79 1009.4
20260505095514 13 0 0.0 0.0 0.00 0.00 0.00 79 1009.3
20260505095014 13 0 0.0 0.0 0.00 0.00 0.00 79 1009.3
20260505094530 13 0 0.0 0.0 0.00 0.00 0.00 78 1009.3
20260505094017 13 0 0.0 0.0 0.00 0.00 0.00 78 1009.3
20260505093514 13 0 0.0 0.0 0.00 0.00 0.00 78 1009.4
20260505093031 13 0 0.0 0.0 0.00 0.00 0.00 77 1009.3
20260505092516 13 0 0.0 0.0 0.00 0.00 0.00 76 1009.3
20260505092017 13 0 0.0 0.0 0.00 0.00 0.00 76 1009.3
20260505091534 13 0 0.0 0.0 0.00 0.00 0.00 75 1009.3
20260505091015 13 0 0.0 0.0 0.00 0.00 0.00 75 1009.3
20260505090514 14 0 0.0 0.0 0.00 0.00 0.00 75 1009.4
20260505090037 14 0 0.0 0.0 0.00 0.00 0.00 74 1009.4
20260505085512 14 0 0.0 0.0 0.00 0.00 0.00 73 1009.4
20260505085017 14 0 0.0 0.0 0.00 0.00 0.00 73 1009.4
20260505084531 14 0 0.0 4.8 0.00 0.00 0.00 73 1009.4
20260505084012 14 0 0.0 4.8 0.00 0.00 0.00 73 1009.2
20260505083515 14 0 0.0 4.8 0.00 0.00 0.00 73 1009.2
20260505083040 15 0 0.0 0.0 0.00 0.00 0.00 72 1009.2
20260505082514 15 0 0.0 1.6 0.00 0.00 0.00 72 1009.1
20260505082012 15 0 0.0 1.6 0.00 0.00 0.00 72 1009.2
20260505081537 15 0 0.0 0.0 0.00 0.00 0.00 73 1009.1
20260505081021 14 0 0.0 0.0 0.00 0.00 0.00 73 1009.0
20260505080514 14 0 0.0 4.8 0.00 0.00 0.00 73 1009.0
20260505080036 14 0 0.0 4.8 0.00 0.00 0.00 73 1009.1
20260505075514 14 0 0.0 0.0 0.00 0.00 0.00 74 1009.0
20260505075017 14 0 0.0 0.0 0.00 0.00 0.00 73 1008.9
20260505074533 14 0 0.0 0.0 0.00 0.00 0.00 73 1008.9
20260505074014 14 0 0.0 0.0 0.00 0.00 0.00 72 1009.0
20260505073515 14 0 0.0 0.0 0.00 0.00 0.00 72 1009.0
20260505073032 14 0 0.0 0.0 0.00 0.00 0.00 72 1009.0
20260505072514 14 0 0.0 0.0 0.00 0.00 0.00 71 1008.9
20260505072014 15 0 0.0 0.0 0.00 0.00 0.00 71 1008.9
20260505071537 15 0 0.0 0.0 0.00 0.00 0.00 71 1008.9
20260505071016 15 0 0.0 0.0 0.00 0.00 0.00 71 1008.9
20260505070515 15 0 0.0 0.0 0.00 0.00 0.00 70 1008.9
20260505070039 15 0 0.0 0.0 0.00 0.00 0.00 69 1008.8
20260505065513 15 0 0.0 0.0 0.00 0.00 0.00 69 1008.8
20260505065014 15 0 0.0 0.0 0.00 0.00 0.00 69 1008.8
20260505064550 15 0 0.0 0.0 0.00 0.00 0.00 69 1008.8
20260505064013 15 0 0.0 0.0 0.00 0.00 0.00 69 1008.8
20260505063515 15 0 0.0 0.0 0.00 0.00 0.00 68 1008.9
20260505063031 15 0 0.0 0.0 0.00 0.00 0.00 67 1008.9
20260505062513 15 0 0.0 0.0 0.00 0.00 0.00 67 1008.8
20260505062014 15 0 0.0 0.0 0.00 0.00 0.00 66 1008.8
20260505061538 15 0 0.0 0.0 0.00 0.00 0.00 66 1008.9
20260505061016 15 0 0.0 0.0 0.00 0.00 0.00 66 1009.0
20260505060515 15 0 0.0 0.0 0.00 0.00 0.00 66 1009.0
20260505060032 15 0 0.0 0.0 0.00 0.00 0.00 67 1009.1
20260505055513 15 0 0.0 0.0 0.00 0.00 0.00 68 1009.0
20260505055014 16 0 0.0 0.0 0.00 0.00 0.00 68 1009.0
20260505054530 16 0 0.0 0.0 0.00 0.00 0.00 65 1009.0
20260505054017 16 0 0.0 0.0 0.00 0.00 0.00 65 1009.1
20260505053517 16 0 0.0 0.0 0.00 0.00 0.00 65 1009.1
20260505053030 16 0 0.0 0.0 0.00 0.00 0.00 65 1009.2
20260505052513 16 0 0.0 0.0 0.00 0.00 0.00 64 1009.3
20260505052014 16 0 0.0 0.0 0.00 0.00 0.00 63 1009.2
20260505051532 16 0 0.0 0.0 0.00 0.00 0.00 63 1009.2
20260505051013 16 0 0.0 0.0 0.00 0.00 0.00 62 1009.1
20260505050516 16 0 0.0 0.0 0.00 0.00 0.00 62 1009.2
20260505041534 17 0 0.0 0.0 0.00 0.00 0.00 59 1009.0
20260505041012 17 0 0.0 4.8 0.00 0.00 0.00 58 1008.9
20260505040511 17 0 0.0 6.4 0.00 0.00 0.00 58 1008.8
20260505040031 17 0 0.0 6.4 0.00 0.00 0.00 58 1008.7
20260505035512 17 0 0.0 0.0 0.00 0.00 0.00 57 1008.7
20260505035017 17 0 0.0 0.0 0.00 0.00 0.00 57 1008.8
20260505034533 17 0 0.0 0.0 0.00 0.00 0.00 56 1008.8
20260505034017 17 0 0.0 0.0 0.00 0.00 0.00 56 1008.8
20260505033515 17 0 0.0 0.0 0.00 0.00 0.00 56 1008.8
20260505033035 17 0 0.0 0.0 0.00 0.00 0.00 56 1008.8
20260505032512 18 0 0.0 0.0 0.00 0.00 0.00 55 1008.8
20260505032016 18 0 0.0 0.0 0.00 0.00 0.00 55 1008.6
20260505031530 18 0 0.0 0.0 0.00 0.00 0.00 55 1008.6
20260505031011 18 0 0.0 0.0 0.00 0.00 0.00 56 1008.7
20260505030511 18 0 0.0 0.0 0.00 0.00 0.00 55 1008.8
20260505030030 18 0 0.0 1.6 0.00 0.00 0.00 55 1008.8
20260505025515 18 0 0.0 1.6 0.00 0.00 0.00 54 1008.8
20260505025012 18 0 0.0 8.0 0.00 0.00 0.00 53 1008.8
20260505024541 18 0 0.0 8.0 0.00 0.00 0.00 53 1008.7
20260505024012 18 0 0.0 3.2 0.00 0.00 0.00 52 1008.7
20260505023512 18 0 0.0 8.0 0.00 0.00 0.00 52 1008.6
20260505023030 19 0 0.0 8.0 0.00 0.00 0.00 52 1008.6
20260505022521 19 0 0.0 9.7 0.00 0.00 0.00 52 1008.6
20260505022013 19 0 0.0 9.7 0.00 0.00 0.00 52 1008.6
20260505021537 19 211 0.0 8.0 0.00 0.00 0.00 51 1008.6
20260505021015 19 0 0.0 8.0 0.00 0.00 0.00 51 1008.6
20260505020514 19 0 0.0 4.8 0.00 0.00 0.00 51 1008.6
20260505020032 19 0 0.0 6.4 0.00 0.00 0.00 50 1008.6
20260505015512 19 0 0.0 6.4 0.00 0.00 0.00 50 1008.6
20260505015019 20 0 0.0 8.0 0.00 0.00 0.00 51 1008.6
20260505014538 20 0 0.0 8.0 0.00 0.00 0.00 49 1008.6
20260505014014 20 0 0.0 14.5 0.00 0.00 0.00 49 1008.6
20260505013517 20 0 0.0 14.5 0.00 0.00 0.00 48 1008.6
20260505013032 20 188 0.0 9.7 0.00 0.00 0.00 48 1008.5
20260505012514 20 215 1.6 11.3 0.00 0.00 0.00 48 1008.3
20260505012015 20 0 0.0 11.3 0.00 0.00 0.00 48 1008.3
20260505011534 20 192 0.0 11.3 0.00 0.00 0.00 48 1008.3
20260505011015 20 211 1.6 11.3 0.00 0.00 0.00 48 1008.4
20260505010515 20 225 0.0 8.0 0.00 0.00 0.00 48 1008.2
20260505010031 20 0 0.0 11.3 0.00 0.00 0.00 48 1008.2
20260505005514 20 0 0.0 11.3 0.00 0.00 0.00 49 1008.2
20260505005016 20 219 0.0 11.3 0.00 0.00 0.00 48 1008.2
20260505004531 20 0 0.0 6.4 0.00 0.00 0.00 48 1008.1
20260505004014 20 0 0.0 12.9 0.00 0.00 0.00 48 1008.1
20260505003516 20 0 0.0 12.9 0.00 0.00 0.00 47 1008.0
20260505003032 20 225 3.2 17.7 0.00 0.00 0.00 47 1008.1
20260505002518 20 0 1.6 17.7 0.00 0.00 0.00 48 1008.0
20260505002015 20 236 0.0 8.0 0.00 0.00 0.00 48 1007.9
20260505001540 20 0 0.0 11.3 0.00 0.00 0.00 47 1008.0
20260505001015 20 0 0.0 11.3 0.00 0.00 0.00 47 1008.0
20260505000514 20 246 3.2 11.3 0.00 0.00 0.00 46 1007.9
20260505000039 20 0 0.0 12.9 0.00 0.00 0.00 47 1008.0
20260504235515 20 209 0.0 12.9 0.00 0.00 0.00 46 1007.8
20260504235016 21 220 0.0 12.9 0.00 0.00 0.00 46 1007.9
20260504234531 21 0 0.0 22.5 0.00 0.00 0.00 46 1007.9
20260504234015 21 0 0.0 22.5 0.00 0.00 0.00 45 1007.8
20260504233515 21 207 3.2 19.3 0.00 0.00 0.00 45 1007.7
20260504233035 21 237 1.6 12.9 0.00 0.00 0.00 46 1007.6
20260504232514 21 192 3.2 12.9 0.00 0.00 0.00 46 1007.6
20260504232016 21 0 1.6 14.5 0.00 0.00 0.00 46 1007.6
20260504231540 21 0 3.2 16.1 0.00 0.00 0.00 45 1007.6
20260504231014 21 0 1.6 16.1 0.00 0.00 0.00 44 1007.6
20260504230518 21 0 0.0 24.1 0.00 0.00 0.00 44 1007.7
20260504230032 21 204 3.2 24.1 0.00 0.00 0.00 44 1007.6
20260504225515 22 212 4.8 24.1 0.00 0.00 0.00 44 1007.6
20260504225015 22 0 1.6 24.1 0.00 0.00 0.00 44 1007.5
20260504224537 22 219 3.2 24.1 0.00 0.00 0.00 43 1007.6
20260504224018 22 0 3.2 16.1 0.00 0.00 0.00 44 1007.6
20260504223519 22 196 3.2 16.1 0.00 0.00 0.00 43 1007.6
20260504223030 22 0 1.6 22.5 0.00 0.00 0.00 43 1007.7
20260504222513 22 0 0.0 22.5 0.00 0.00 0.00 44 1007.6
20260504222014 22 222 4.8 22.5 0.00 0.00 0.00 42 1007.6
20260504221533 22 212 3.2 25.7 0.00 0.00 0.00 42 1007.6
20260504221015 22 249 4.8 25.7 0.00 0.00 0.00 41 1007.6
20260504220515 23 217 4.8 17.7 0.00 0.00 0.00 42 1007.5
20260504220035 23 0 0.0 19.3 0.00 0.00 0.00 40 1007.5
20260504215515 23 0 4.8 20.9 0.00 0.00 0.00 39 1007.5
20260504215012 23 196 4.8 20.9 0.00 0.00 0.00 38 1007.5